This demonstration page uses our WeatherBlox Daily Observations layout. Learn more.

Left ArrowRight Arrow

47.50024, -111.30081

Hourly Observations for June 23, 2022

Temp ( °F °C ) Dew Point ( °F °C ) Humidity (%) Winds ( mph kmh ) Pressure ( in mb ) Visibility ( mi km ) Precip ( " mm )
12:53 am 00:53 Clear 57 13.9 43 6.1 60 60 W 8 13 29.86 1011 10 16 0.00 0.00
1:53 am 01:53 Clear 60 15.6 41 5 50 50 S 6 9 29.84 1010 10 16 0.00 0.00
2:53 am 02:53 Clear 57 13.9 43 6.1 60 60 S 12 19 29.83 1010 10 16 0.00 0.00
3:53 am 03:53 Clear 56 13.3 43 6.1 62 62 SSW 10 17 29.82 1010 10 16 0.00 0.00
4:53 am 04:53 Clear 55 12.8 43 6.1 64 64 SSW 10 17 29.82 1010 10 16 0.00 0.00
5:53 am 05:53 Sunny 57 13.9 43 6.1 60 60 SSW 10 17 29.81 1010 10 16 0.00 0.00
6:53 am 06:53 Sunny 61 16.1 45 7.2 56 56 SSW 9 15 29.81 1010 10 16 0.00 0.00
7:53 am 07:53 Sunny 68 20 45 7.2 44 44 SSW 12 19 29.79 1009 10 16 0.00 0.00
8:53 am 08:53 Partly Cloudy 72 22.2 46 7.8 40 40 SSW 13 20 29.79 1009 10 16 0.00 0.00
9:53 am 09:53 Cloudy 73 22.8 45 7.2 37 37 SW 15 24 29.78 1009 10 16 0.00 0.00
10:53 am 10:53 Mostly Sunny 76 24.4 44 6.7 32 32 WSW 20 31 29.76 1008 10 16 0.00 0.00
11:53 am 11:53 Sunny 79 26.1 47 8.3 32 32 WSW 20 31 29.75 1008 10 16 0.00 0.00
12:53 pm 12:53 Sunny 80 26.7 44 6.7 28 28 WSW 23 37 29.74 1007 10 16 0.00 0.00
1:53 pm 13:53 Sunny 81 27.2 46 7.8 29 29 WSW 22 35 29.72 1006 10 16 0.00 0.00
2:53 pm 14:53 Sunny 82 27.8 43 6.1 25 25 WSW 29 46 29.71 1006 10 16 0.00 0.00
3:53 pm 15:53 Sunny 82 27.8 38 3.3 21 21 WSW 28 44 29.72 1007 10 16 0.00 0.00
4:53 pm 16:53 Sunny 81 27.2 37 2.8 21 21 W 20 31 29.72 1007 10 16 0.00 0.00
5:53 pm 17:53 Sunny 78 25.6 33 0.6 19 19 WNW 21 33 29.72 1007 10 16 0.00 0.00
6:53 pm 18:53 Sunny 76 24.4 35 1.7 23 23 WNW 17 28 29.74 1007 10 16 0.00 0.00
7:53 pm 19:53 Sunny 71 21.7 28 -2.2 20 20 NW 15 24 29.76 1008 10 16 0.00 0.00
8:53 pm 20:53 Sunny 71 21.7 28 -2.2 20 20 WNW 14 22 29.78 1008 10 16 0.00 0.00
9:53 pm 21:53 Clear 65 18.3 26 -3.3 23 23 NW 8 13 29.83 1010 10 16 0.00 0.00
10:53 pm 22:53 Clear 61 16.1 28 -2.2 29 29 NE 9 15 29.87 1011 10 16 0.00 0.00
11:53 pm 23:53 Clear 54 12.2 29 -1.7 38 38 NNE 6 9 29.88 1012 10 16 0.00 0.00

Powered by AerisWeather